www.pogodaiklimat.ru

Погода и климат >> Архив погоды >> Финляндия >> Остров Синго


ПОГОДА на Острове Синго

  • Прогноз погоды на Острове Синго
  • Монитор погоды на Острове Синго

АРХИВ ПОГОДЫ на Острове Синго

Время (UTC), дата Ветер
(напр.,м/с)
 
Видим.   Явления Облачность Т
(С)
Тd
(С)
f
(%)
Тe
(С)
Тes
(С)
Комфортность P
(гПа)
Po
(гПа)
Тmin
(С)
Tmax
(С)
R
(мм)
R24
(мм)
S
(см)
15 18.06 З 5 50 км ясно +25.2 +10.2 39 +26 +29 жарко 1013.6 1003.8
18 18.06 З 2 50 км ясно +23.2 +10.1 43 +25 +25 комфорт 1013.6 1003.7 +20.2 +26.4
21 18.06 ЮЗ 2 50 км ясно +14.9 +10.9 77 +15 +15 1014.9 1004.8
00 19.06 ЮЗ 2 35 км ясно +11.9 +10.9 94 +11 +11 1015.3 1005.1
03 19.06 ЮЗ 2 30 км ясно +13.6 +12.3 92 +13 +14 1015.2 1005.1
06 19.06 ЮЗ 4 30 км 1/1
[]
+19.6 +12.8 65 +21 +25 комфорт 1014.2 1004.3 +11.4 +23.2
09 19.06 ЮЗ 5 35 км 1/1 2000 м
[]
+23.8 +12.6 49 +26 +32 жарко 1013.7 1003.9
12 19.06 ЮЗ 5 40 км 3/0
[]
+24.3 +12.5 48 +26 +32 жарко 1013.3 1003.5
15 19.06 ЮЗ 5 40 км 1/1 1500 м
[]
+23.9 +12.4 49 +26 +28 жарко 1012.6 1002.8
18 19.06 ЮЗ 3 50 км ясно +21.3 +11.6 54 +23 +24 комфорт 1012.7 1002.8 +19.5 +25.5
21 19.06 ЮЗ 2 50 км ясно +13.8 +11.5 86 +13 +13 1013.6 1003.4
00 20.06 ЮЗ 2 30 км ясно +11.2 +10.6 96 +10 +10 1013.8 1003.6
03 20.06 Ю 1 40 км 10/3 1500 м
[]
+14.3 +12.7 90 +15 +15 1013.6 1003.5
06 20.06 Ю 3 40 км ясно +20.1 +13.5 66 +22 +28 комфорт 1013.2 1003.3 +10.7 +21.4
09 20.06 Ю 3 35 км ясно +25.0 +13.2 48 +27 +38 жарко 1012.4 1002.7
12 20.06 Ю 5 45 км ясно +26.4 +7.9 31 +26 +33 жарко 1011.6 1001.9
15 20.06 ЮВ 2 50 км 8/8 2000 м
[]
+25.0 +11.9 44 +27 +28 жарко 1010.4 1000.6
18 20.06 ЮВ 3 50 км 4/4 2000 м
[]
+22.7 +12.7 53 +25 +26 комфорт 1009.9 1000.0 +19.9 +26.9
21 20.06 ЮВ 2 40 км 4/4 2000 м
[]
+15.3 +12.6 84 +15 +15 1009.9 999.8
00 21.06 ЮВ 2 30 км ясно +13.4 +12.4 94 +13 +13 1009.4 999.3
03 21.06 Ю 1 35 км ясно +16.9 +15.0 89 +18 +19 1008.6 998.6
06 21.06 ЮВ 3 35 км ясно +21.6 +17.4 77 +26 +31 душно 1008.1 998.2 +13.0 +22.8
09 21.06 Ю 6 16 км 6/6
[]
+25.5 +17.6 62 +30 +32 душно 1007.9 998.2
12 21.06 Ю 6 30 км 1/1
[]
+26.0 +15.0 51 +29 +33 душно 1008.0 998.3
15 21.06 ЮЗ 5 45 км 6/5 1000 м
[]
+25.1 +15.6 56 +28 +30 жарко 1007.7 998.0
18 21.06 ЮЗ 3 45 км ясно +22.2 +11.9 52 +25 +25 комфорт 1008.2 998.4 +21.6 +27.3
21 21.06 З 3 50 км ясно +15.9 +9.8 67 +15 +15 1009.8 999.8
00 22.06 ЮЗ 2 40 км 3/3
[]
+10.8 +10.1 95 +9 +9 1010.9 1000.7
03 22.06 ЮЗ 2 40 км 5/5
[]
+13.4 +11.8 90 +13 +13 1010.9 1000.7
06 22.06 З 4 21 км слаб. дождь 9/8 600 м
[]
+15.6 +11.0 74 +15 +15 1011.7 1001.6 +10.6 +22.2
09 22.06 ЮЗ 5 35 км 4/4 600 м
[]
+18.4 +11.5 64 +18 +23 1012.1 1002.2
12 22.06 З 6 40 км 8/8 1500 м
[]
+18.2 +8.8 54 +18 +19 1013.8 1003.8
15 22.06 З 6 40 км 6/4 1000 м
[]
+19.0 +7.9 48 +19 +20 1015.1 1005.1
18 22.06 З 4 45 км ясно +16.4 +5.8 49 +16 +16 1017.3 1007.2 +13.1 +20.2 0.9
21 22.06 ЮЗ 2 50 км ясно +8.4 +6.4 87 +6 +6 1019.0 1008.6
00 23.06 ЮЗ 2 50 км ясно +5.7 +5.4 98 +3 +3 1020.4 1009.8
03 23.06 З 1 45 км ясно +11.1 +8.4 83 +11 +12 1021.3 1011.0
06 23.06 З 3 45 км ясно +16.5 +6.7 52 +16 +22 1022.0 1011.8 +4.9 +16.5
09 23.06 СЗ 3 40 км ясно +19.5 +3.3 34 +20 +31 1022.0 1012.0
12 23.06 З 3 40 км 9/9 2000 м
[]
+22.8 +5.6 33 +23 +24 комфорт 1021.6 1011.7
15 23.06 ЮЗ 3 50 км 9/9 2000 м
[]
+19.8 +6.1 41 +21 +21 комфорт 1021.2 1011.1
18 23.06 З 3 50 км 10/10 2000 м
[]
+17.2 +6.9 51 +17 +17 1021.6 1011.5 +16.1 +23.1
21 23.06 З 1 50 км 9/9
[]
+10.3 +10.3 100 +10 +10 1022.3 1011.9
00 24.06 З 1 50 км 8/0
[]
+9.4 +9.4 100 +9 +9 1023.7 1013.3
03 24.06 С 2 50 км ясно +10.9 +9.2 89 +10 +10 1025.0 1014.7
06 24.06 СЗ 3 40 км ясно +16.9 +6.7 51 +17 +22 1025.8 1015.6 +7.8 +17.2 0.4
09 24.06 СЗ 4 45 км 8/8 1500 м
[]
+19.8 +5.0 38 +20 +22 1026.1 1016.0
12 24.06 СЗ 3 50 км 5/5 2000 м
[]
+19.7 +4.4 36 +20 +26 1026.5 1016.4
15 24.06 СЗ 5 45 км 3/3 2000 м
[]
+20.7 +3.4 32 +21 +23 комфорт 1026.8 1016.8
18 24.06 СЗ 2 50 км ясно +18.8 +4.4 39 +20 +20 1027.4 1017.3 +16.9 +22.6
21 24.06 З 2 50 км ясно +8.7 +6.1 84 +7 +7 1029.4 1018.9
00 25.06 СЗ 1 50 км ясно +6.2 +5.3 94 +5 +5 1030.1 1019.6
03 25.06 СЗ 2 45 км ясно +8.3 +5.5 83 +6 +7 1030.4 1019.9
06 25.06 С 1 45 км 1/1
[]
+16.1 +8.8 62 +17 +24 1030.1 1019.8 +5.4 +18.8
09 25.06 З 2 45 км 6/6
[]
+19.7 +7.5 45 +21 +26 комфорт 1029.0 1018.9
12 25.06 З 2 35 км 9/9
[]
+21.0 +5.5 36 +22 +24 комфорт 1027.8 1017.7

 

Местоположение метеостанции Остров Синго (Финляндия): широта 60.63 долгота 25.19 высота над уровнем моря 85 м.

В архиве по умолчанию представлена погода на Острове Синго за последнюю неделю. Архивные данные за месяц целиком и за предыдущие месяцы, начиная с января 2011 года, Вы можете получить, выбрав интересующий диапазон дат из раскрывающегося списка и нажав кнопку "Ввод!".


*Определитесь, кто Вы:
робот инопланетянин человек

Внимание! Время в таблицах - всемирное. Для получения местного времени необходимо прибавить поправку, которая равна 1 ч.

Смотрите также архив погоды в соседних городах и на ближайших метеорологических станциях:

Погода в Хювинкяа (Финляндия) (22 км)
Погода в Нурмиярви (Финляндия) (32 км)
Погода в Порвоо (Финляндия) (35 км)
Погода в Хельсинки (Финляндия) (36 км)
Погода в Килпилахти (Финляндия) (42 км)
Погода в Лахти (Финляндия) (44 км)
Погода в Ламми Паппила (Финляндия) (47 км)
Погода в Вихти (Финляндия) (49 км)
Погода в Хельсинки университете (Финляндия) (49 км)
Погода в Лаппеенранта Коннунсуо (Финляндия) (50 км)

Пояснения к столбцам:

Ветер - указаны скорость ветра в м/с - средняя за 10 мин, порывы в срок и между сроками (в фигурных скобках) и направление, откуда дует ветер: С - северный, СВ - северо-восточный, В - восточный, ЮВ - юго-восточный, Ю - южный, ЮЗ - юго-западный, З - западный, СЗ - северо-западный.
Видимость - горизонтальная дальность видимости в метрах или километрах. При видимости от 1 до 10 км при отсутствии осадков обычно наблюдается дымка, при ухудшении видимости до 1 км и менее - туман. В сухую погоду видимость может ухудшаться дымом, пылью или мглою.
Явления - указаны атмосферные явления, наблюдавшиеся в срок или в последний час перед сроком; фигурными скобками обозначены явления, наблюдавшиеся между сроками (за 1-3 часа до срока); квадратными скобками обозначены град или гололедные отложения с указанием их диаметра в мм.
Облачность - указаны через наклонную черту общая и нижняя облачность в баллах и высота нижней границы облаков в метрах; квадратными скобками обозначены формы облаков: Ci - перистые, Cs - перисто-слоистые, Cc - перисто-кучевые, Ac - высококучевые, As - высокослоистые, Sc - слоисто-кучевые, Ns - слоисто-дождевые, Cu - кучевые, Cb - кучево-дождевые. Подробнее классификацию облаков см. в Атласе облаков (PDF).
T - Температура воздуха - температура, измеренная на высоте 2 м над землей.
Td - Температура точки росы - температура, при понижении до которой содержащийся в воздухе водяной пар достигнет насыщения.
f - Относительная влажность воздуха - влажноcть воздуха, измеренная на высоте 2 м над землей.
Te - Эффективная температура - температура, которую ощущает одетый по сезону человек в тени. Характеристика душности погоды. При расчете учитывается влияние влажности воздуха и скорости ветра на теплоощущения человека.
Tes - Эффективная температура на солнце - температура, которую ощущает человек, с поправкой на солнечный нагрев. Характеристика знойности погоды. Зависит от высоты солнца над горизонтом, облачности и скорости ветра. Ночью, в пасмурную погоду, а также при ветре 12 м/с и более поправка равна нулю.
P - Атмосферное давление - приведенное к уровню моря атмосферное давление.
Po - Атмосферное давление - измеренное на уровне метеостанции атмосферное давление.
Tmin - Минимальная температура - минимум температуры воздуха на высоте 2 м над землей.
Tmax - Максимальная температура - максимум температуры воздуха на высоте 2 м над землей.
R - Количество осадков - Количество выпавших осадков за период времени, мм. При наведении курсора мыши на число - период времени, за который выпало указанное количество осадков.
R24 - Количество осадков - Количество выпавших осадков за 24 часа, мм.
S - Снежный покров - Высота снежного покрова, см. При наведении курсора мыши на число - состояние снежного покрова и степень покрытия местности в баллах.